Location: Écuvilly
(49.6505°N, 2.9206°E)
Time: 04:12:39
(UTC+00:00)

Cosmos 2344 - Visible Passes

Search period start: 19 February 2026 00:00
Search period end: 01 March 2026 00:00
Orbit: 1195 x 3047 km, 63.3° (Epoch: 18 February)

Date Brightness Start Highest point End Pass type
(mag) Time Alt. Az. Time Alt. Az. Time Alt. Az.
19 Feb 5.9 00:06:56 10° NW 00:24:50 - E 00:06:56 10° NW visible
19 Feb 5.2 02:34:55 30° SE 02:34:55 30° SE 02:39:46 10° SE visible
19 Feb 5.1 04:45:01 23° SW 04:45:01 23° SW 04:51:06 10° SSW visible
19 Feb 3.6 19:23:13 10° SW 19:30:50 72° NW 19:37:16 14° NE visible
19 Feb 4.8 21:40:16 10° WNW 21:46:36 31° NNW 21:47:18 31° N visible
19 Feb 5.8 23:56:34 10° NW 23:57:20 13° NW 23:57:20 13° NW visible
20 Feb 5.6 02:25:57 23° SE 02:25:57 23° SE 02:29:24 10° SE visible
20 Feb 5.3 04:36:03 20° SW 04:36:03 20° SW 04:40:43 10° SSW visible
20 Feb 3.6 19:12:51 10° SW 19:20:28 72° NW 19:27:36 11° NE visible
20 Feb 4.8 21:29:55 10° WNW 21:36:15 31° N 21:37:38 29° N visible
20 Feb 5.6 23:46:12 10° NW 23:47:39 16° NW 23:47:39 16° NW visible
21 Feb 5.9 02:17:02 17° SE 02:17:02 17° SE 02:19:02 10° SE visible
21 Feb 5.6 04:27:08 17° SSW 04:27:08 17° SSW 04:30:20 10° SSW visible
21 Feb 3.6 19:02:29 10° SW 19:10:06 72° NW 19:17:25 10° NE visible
21 Feb 4.8 21:19:33 10° WNW 21:25:53 31° N 21:27:55 28° NNE visible
21 Feb 5.5 23:35:50 10° NW 23:37:56 19° NNW 23:37:56 19° NNW visible
22 Feb 6.2 02:08:09 12° SE 02:08:09 12° SE 02:08:40 10° SE visible
22 Feb 5.8 04:18:16 14° SSW 04:18:16 14° SSW 04:19:57 10° SSW visible
22 Feb 3.7 18:52:08 10° SW 18:59:45 72° NW 19:07:03 10° NE visible
22 Feb 4.8 21:09:11 10° WNW 21:15:32 31° N 21:18:08 25° NNE visible
22 Feb 5.3 23:25:28 10° NW 23:28:10 22° NNW 23:28:10 22° NNW visible
23 Feb6.201:59:18SE01:59:18SE01:38:11NWvisible
23 Feb 6.0 04:09:25 10° SSW 04:09:25 10° SSW 04:09:34 10° SSW visible
23 Feb 3.7 18:41:46 10° SW 18:49:22 72° NW 18:56:41 10° NE visible
23 Feb 4.8 20:58:49 10° WNW 21:05:10 31° N 21:08:19 23° NNE visible
23 Feb 5.2 23:15:06 10° NW 23:18:20 25° NNW 23:18:20 25° NNW visible
24 Feb6.101:50:27SE01:50:27SE01:28:21NWvisible
24 Feb 3.7 18:31:24 10° SW 18:39:01 71° NW 18:46:19 10° NE visible
24 Feb 4.8 20:48:28 10° WNW 20:54:48 31° N 20:58:28 21° NNE visible
24 Feb 5.1 23:04:44 10° NW 23:08:29 28° NNW 23:08:29 28° NNW visible
25 Feb 3.7 18:21:02 10° SW 18:28:39 71° NW 18:35:57 10° NE visible
25 Feb 4.8 20:38:06 10° WNW 20:44:26 31° N 20:48:35 20° NE visible
25 Feb 5.0 22:54:22 10° NW 22:58:36 30° NNW 22:58:36 30° NNW visible
26 Feb 3.8 18:10:40 10° SW 18:18:16 71° NW 18:25:35 10° NE visible
26 Feb 4.8 20:27:44 10° WNW 20:34:04 31° N 20:38:41 18° NE visible
26 Feb 4.9 22:44:00 10° NW 22:48:41 33° N 22:48:41 33° N visible
27 Feb 5.8 00:58:19 10° NW 00:58:42 12° NW 00:58:42 12° NW visible
27 Feb 3.8 18:00:18 10° SW 18:07:55 71° NW 18:15:13 10° NE visible
27 Feb 4.8 20:17:23 10° WNW 20:23:43 31° N 20:28:45 16° NE visible
27 Feb 4.8 22:33:39 10° NW 22:38:46 34° N 22:38:46 34° N visible
28 Feb 5.7 00:47:57 10° NW 00:48:46 14° NW 00:48:46 14° NW visible
28 Feb 3.8 17:49:56 10° SW 17:57:33 71° NW 18:04:51 10° NE visible
28 Feb 4.8 20:07:01 10° WNW 20:13:21 31° N 20:18:48 15° NE visible
28 Feb 4.7 22:23:17 10° NW 22:28:49 36° N 22:28:49 36° N visible
